This is the latest recevied weather packets stored in our database for station/object HB9HFD-13. If no packets are shown the sender has not sent any weather packets the latest 10 day(s).
| Time | Temp. | Humidity | Pressure | Rain* | Wind** | Luminosity | Snow |
|---|---|---|---|---|---|---|---|
| 1777994999 | 16.11° C | 75% | 1007.4 hPa | 0 mm | - | - | - |
| 1777994699 | 16.11° C | 75% | 1007.4 hPa | 0 mm | - | - | - |
| 1777994399 | 16.67° C | 73% | 1007.3 hPa | 0 mm | - | - | - |
| 1777994099 | 16.67° C | 72% | 1007.3 hPa | 0 mm | - | - | - |
| 1777993798 | 16.67° C | 74% | 1007.2 hPa | 0 mm | - | - | - |
| 1777993498 | 17.22° C | 70% | 1007.2 hPa | 0 mm | - | - | - |
| 1777993198 | 18.33° C | 70% | 1007.3 hPa | 0 mm | - | - | - |
| 1777992897 | 17.78° C | 74% | 1007.1 hPa | 0 mm | - | - | - |
| 1777992597 | 17.22° C | 72% | 1007.2 hPa | 0 mm | - | - | - |
| 1777992297 | 17.22° C | 77% | 1007.2 hPa | 0 mm | - | - | - |
| 1777991997 | 16.67° C | 79% | 1007.2 hPa | 0 mm | - | - | - |
| 1777991696 | 16.11° C | 80% | 1007.2 hPa | 0 mm | - | - | - |
| 1777991396 | 15.56° C | 83% | 1007.3 hPa | 0 mm | - | - | - |
| 1777991096 | 15.56° C | 80% | 1007.4 hPa | 0 mm | - | - | - |
| 1777990796 | 15.56° C | 80% | 1007.4 hPa | 0 mm | - | - | - |
| 1777990495 | 15.56° C | 82% | 1007.4 hPa | 0 mm | - | - | - |
| 1777989895 | 15° C | 84% | 1007.4 hPa | 0 mm | - | - | - |
| 1777989594 | 15° C | 84% | 1007.4 hPa | 0 mm | - | - | - |
| 1777989294 | 15° C | 84% | 1007.5 hPa | 0 mm | - | - | - |
| 1777988994 | 15° C | 82% | 1007.4 hPa | 0 mm | - | - | - |
| 1777988694 | 15° C | 85% | 1007.5 hPa | 0 mm | - | - | - |
| 1777988393 | 15° C | 85% | 1007.6 hPa | 0 mm | - | - | - |
| 1777988093 | 14.44° C | 87% | 1007.6 hPa | 0 mm | - | - | - |
| 1777987793 | 14.44° C | 87% | 1007.7 hPa | 0 mm | - | - | - |
| 1777987493 | 14.44° C | 87% | 1007.7 hPa | 0 mm | - | - | - |
* Rain latest hour (hover to see other rain measurements)
** Current wind speed in m/s (hover to see current wind gust speed)